Location: *
(37.5724°S, 58.0067°E)
Time: 09:40:40
(UTC+00:00)

H-2A ROCKET BODY - Pass Details

Date: 26 January 2021
Orbit: 216 x 15031 km, 28.6° (Epoch: 07 March)

Event Time Altitude Azimuth Distance (km) Brightness Sun altitude
Rises 17:19:19 0° 333° (NNW) 9,326 7.4 -19.5°
Reaches altitude 10° 17:25:14 10° 340° (NNW) 9,622 7.3 -20.4°
Maximum altitude 19:00:12 55° 51° (NE) 15,966 8.2 -30.8°
Drops below altitude 10° 20:39:55 10° 99° (E) 11,372 8.1 -33.8°
Sets 20:46:52 0° 101° (E) 11,030 8.1 -33.6°
